CAPE
763 831 994 876 1278 1169 1166 1130 932 1174 1490 1434 1289 1330 1469 1557 1349 1116 867 675 227 50 0 1 0 8 0 0 0 0 0 0 0 0 0 0 0 0 240 682 941 684 710 674 568 1012 830 831 912 1015 1053 826 752 770 760 991 1094 934 746 529 553 576 494 548 691 547 507 470 628 413 579 1102 455 358 299 0 0 0 252 583 465 391 410 294 288
878 1169 1101 946 1211 1144 1216 1126 1221 1213 1405 1327 1367 1407 1451 1544 1269 1068 750 550 336 143 70 172 20 7 0 0 0 0 0 0 0 0 0 0 0 0 0 0 0 46 739 882 850 1393 1026 1105 1069 972 797 699 792 831 842 875 965 939 920 724 720 631 677 562 657 576 429 471 741 542 552 1309 1109 739 74 43 33 141 86 604 652 443 481 315 186
773 1039 1113 898 1092 849 1248 1349 1384 1216 1446 1383 1444 1526 1504 1595 1337 1067 738 554 358 513 553 123 116 260 41 0 0 0 0 0 0 0 0 0 0 0 0 0 0 0 0 0 16 1253 1115 1096 865 615 634 593 596 843 805 794 664 675 806 800 740 648 678 532 490 408 504 680 417 40 340 360 547 633 245 0 0 0 217 729 584 515 524 422 584
736 1015 1021 837 687 977 1317 1437 1522 1380 1334 1579 1532 1656 1535 1669 1259 1078 827 708 734 388 83 1 0 0 0 0 0 0 0 0 0 0 0 0 0 0 0 0 0 0 0 0 0 0 268 973 931 705 719 722 833 866 934 923 887 779 727 758 674 661 620 611 456 435 672 386 305 153 332 444 281 524 737 672 524 641 873 718 805 622 529 324 291
641 813 931 721 731 1160 1286 1448 1643 1482 1246 1690 1660 1809 1695 1676 1318 1052 903 814 633 254 85 4 0 0 0 0 0 0 0 0 0 0 0 215 0 0 0 0 0 0 0 0 0 0 98 357 603 702 746 736 820 747 697 747 509 655 746 766 756 670 597 576 519 533 490 547 299 266 186 209 354 597 678 643 906 1170 987 1167 763 902 389 523 596
573 679 860 684 860 977 1332 1447 1547 1653 1510 1704 1906 1954 1859 1662 1294 1015 868 805 360 75 51 3 0 0 0 0 0 0 0 0 0 0 0 0 0 0 0 0 0 0 0 0 0 0 0 0 125 540 468 571 653 590 592 636 316 485 481 563 609 600 509 503 488 476 490 453 411 433 398 292 514 432 479 336 441 644 1218 1117 1148 867 454 703 597
532 660 602 694 831 969 998 1373 1372 1695 1766 1851 2036 2012 1967 1702 1306 868 825 673 282 106 94 30 0 0 0 0 0 0 0 0 0 0 0 0 0 0 0 0 0 0 0 0 0 2 0 17 0 66 0 0 0 0 245 211 498 606 591 303 63 423 500 452 445 481 464 422 407 274 381 379 571 581 465 327 343 669 1010 564 823 678 942 808 690
608 570 541 538 838 746 802 1067 1330 1347 1926 1917 2020 2005 2031 1825 1529 778 808 600 344 256 81 10 0 0 0 0 0 0 0 0 0 0 0 0 0 0 0 0 0 0 0 0 0 0 0 0 0 0 0 0 0 0 0 0 0 13 367 449 83 71 66 60 322 378 400 389 358 27 156 518 683 317 314 163 2 108 102 594 578 361 757 567 553
732 630 588 567 701 702 692 767 933 1083 1221 1703 1906 2020 2080 1887 1680 914 748 604 357 271 176 6 0 0 0 0 11 0 0 0 0 0 0 0 0 0 0 0 0 0 0 0 0 0 0 0 0 0 0 0 0 0 0 0 0 0 0 0 83 14 53 64 74 74 74 28 41 138 234 340 472 422 77 6 1 28 31 274 306 774 666 483 426
758 714 641 606 498 554 659 719 788 898 1057 1192 1615 1735 1889 2000 1827 1336 707 607 368 268 134 6 0 0 0 0 0 0 0 0 0 0 0 0 0 0 0 0 0 0 0 0 0 0 0 0 0 0 0 0 0 0 0 0 0 0 0 0 0 0 0 0 0 0 0 0 0 0 13 588 161 136 13 2 23 17 6 26 0 0 4 218 628
833 766 710 942 785 753 566 654 697 774 857 1041 1159 1338 1438 1942 1816 1678 983 592 437 282 68 9 0 0 0 0 0 0 0 0 0 0 0 0 0 0 0 0 0 0 0 0 0 0 0 0 0 0 0 0 0 0 0 0 0 0 0 0 0 0 0 0 0 0 0 0 0 0 0 0 0 0 0 0 0 0 0 0 0 0 0 0 188
498 909 1071 1046 1059 962 754 684 649 594 602 892 1021 1014 1053 1441 1167 875 844 642 512 292 29 11 0 0 4 0 0 0 0 0 0 0 0 0 0 0 0 0 0 0 0 0 0 0 0 0 0 0 0 0 0 0 0 0 0 0 0 0 0 0 0 0 0 0 0 0 0 0 0 0 0 0 0 0 0 0 0 0 0 0 7 6 0
463 590 642 817 1049 1145 1018 860 750 658 564 524 781 952 1004 958 876 551 709 657 526 259 38 3 6 3 18 2 0 0 0 0 0 0 0 0 0 0 0 0 0 0 0 0 0 0 0 0 0 0 0 0 0 0 0 0 0 0 0 0 0 0 0 0 0 0 0 0 0 0 0 0 0 0 0 0 0 0 0 0 0 0 0 0 0
745 738 761 816 787 1006 1040 928 756 650 609 671 738 960 891 766 695 651 784 740 590 230 106 17 0 0 126 5 0 2 0 0 0 0 0 0 0 0 0 0 0 0 0 0 0 0 0 0 0 0 0 0 0 0 0 0 0 0 0 0 0 0 0 0 0 0 0 0 0 0 0 0 0 0 0 0 0 0 0 0 0 0 0 0 0
578 702 799 818 896 885 900 975 840 716 762 904 978 841 715 473 815 661 684 760 657 245 200 32 0 0 2 6 0 5 5 0 0 1 5 3 2 0 0 0 0 0 0 0 0 0 0 0 0 0 0 0 0 0 0 0 0 0 0 0 0 0 0 0 0 0 0 0 0 0 0 0 0 0 0 0 0 0 0 0 0 0 0 0 0
746 686 719 732 830 942 911 1388 1151 902 912 1009 1102 1167 1057 663 753 621 554 651 637 326 295 126 2 1 50 47 0 38 36 1 4 9 23 5 9 0 0 0 0 0 0 0 0 0 0 0 0 0 0 0 0 0 0 0 0 0 0 0 0 0 0 0 0 0 0 0 0 0 0 0 0 0 0 0 0 0 0 0 0 0 0 0 0
859 743 623 699 793 888 868 1266 1488 1308 1201 1330 1239 1126 1004 706 575 424 456 522 545 239 384 365 167 26 114 56 2 34 40 21 13 2 204 40 12 0 16 0 0 0 0 0 0 0 0 0 0 0 0 0 0 0 0 0 0 0 0 0 0 0 0 0 0 0 0 0 0 0 0 0 0 0 0 0 0 0 0 0 0 0 0 0 0
754 702 699 659 667 908 889 945 1180 1184 1104 992 902 873 820 945 747 460 190 565 490 186 521 538 453 308 301 71 11 0 4 15 23 0 12 267 140 4 248 24 0 0 0 0 0 0 0 7 0 0 0 0 0 0 0 0 0 0 0 0 0 0 0 0 0 0 0 0 0 0 0 0 0 0 0 0 0 0 0 0 0 0 0 0 0
680 637 682 725 697 656 729 797 862 854 910 865 830 786 656 589 431 549 125 211 505 546 499 490 537 461 493 193 174 23 42 2 85 8 4 361 167 109 226 171 20 0 0 0 0 2 0 0 0 0 0 0 0 0 0 0 0 0 0 0 0 0 0 0 0 0 0 0 0 0 0 0 0 0 0 0 0 0 0 0 0 0 0 0 0
693 720 719 687 697 708 667 662 627 617 639 764 700 585 601 454 489 710 554 539 673 608 447 215 486 617 574 607 476 61 167 35 285 70 5 241 238 166 112 339 236 17 0 0 0 17 0 0 0 0 0 0 0 0 0 0 0 0 0 0 0 0 0 0 0 0 0 0 0 0 0 0 0 0 0 0 0 0 0 0 0 0 0 0 0
404 684 687 716 662 658 661 668 675 615 622 691 691 651 638 567 665 675 759 735 658 432 305 232 189 324 725 822 809 810 725 524 433 416 162 188 260 259 175 155 346 228 199 77 75 83 68 0 0 0 0 0 0 0 0 0 0 0 0 0 0 0 0 0 0 0 0 0 0 0 0 0 0 0 0 0 0 0 0 0 0 0 0 0 0
469 299 348 673 691 666 654 679 685 680 632 632 678 672 620 619 739 646 670 657 620 470 370 233 112 245 844 870 988 858 782 678 555 613 457 344 334 524 540 390 322 350 293 288 288 283 247 202 192 3 0 0 0 0 0 0 0 0 0 0 0 0 0 0 0 0 0 0 0 0 0 0 0 0 0 0 0 0 0 0 0 0 0 0 0
504 438 373 418 611 646 707 679 694 710 672 623 632 636 648 676 686 645 625 611 576 387 313 348 615 609 767 770 733 694 648 585 571 604 771 820 770 648 524 320 342 352 402 414 340 321 304 290 252 230 187 15 0 0 0 0 0 0 0 0 0 0 0 0 0 0 0 0 0 0 0 0 0 0 0 0 0 0 0 0 0 0 0 0 0
372 426 399 386 366 387 590 715 686 706 733 648 637 657 688 706 714 703 668 624 594 514 321 500 593 582 672 789 715 716 706 636 537 522 671 712 828 802 646 544 412 7 27 492 486 446 406 364 332 298 245 198 156 31 0 0 0 0 0 0 0 0 0 0 0 0 0 0 0 0 0 0 0 0 0 0 0 0 0 0 0 0 0 0 0
0 0 0 0 0 0 0 227 531 470 719 746 727 758 795 787 754 715 676 649 523 494 488 506 530 458 525 624 570 625 497 457 459 495 562 563 580 678 725 701 621 412 260 524 398 432 502 464 429 385 302 248 204 173 101 168 171 159 94 0 0 0 0 0 0 0 0 0 0 0 0 0 0 0 0 0 0 0 0 0 0 0 0 0 0
0 0 0 0 0 0 0 0 0 0 96 632 747 767 841 858 829 765 697 653 582 497 508 510 444 505 453 405 472 473 387 565 553 554 590 676 753 602 553 604 483 322 29 604 575 406 282 292 317 282 254 227 259 244 217 189 186 199 189 158 0 0 0 0 0 0 0 1 1 0 0 0 0 0 0 0 0 0 0 0 0 0 0 0 0
0 0 0 0 0 0 0 0 0 0 0 0 134 319 592 706 766 788 754 704 634 579 528 657 815 731 760 856 954 587 516 766 700 645 546 433 653 630 480 341 403 452 326 417 385 337 35 56 50 36 22 25 203 264 257 239 191 161 161 154 145 126 101 0 0 0 1 8 13 16 12 3 0 0 0 0 0 0 0 0 0 0 0 0 0
0 0 0 0 0 0 0 0 0 0 0 0 0 0 0 0 0 304 542 496 403 495 542 456 465 497 609 680 716 672 694 892 860 916 729 468 420 647 659 528 456 338 281 95 186 147 97 68 62 64 56 134 231 246 112 249 175 60 7 10 148 141 0 0 0 0 0 0 0 0 0 4 0 0 0 0 0 0 0 0 0 0 0 0 0
0 0 0 0 0 0 0 0 0 0 0 0 0 0 0 0 0 0 0 0 0 24 210 261 337 442 558 682 727 705 672 674 635 776 803 844 751 641 678 771 669 571 483 368 243 104 98 152 215 49 95 44 95 202 238 247 196 141 0 0 125 168 150 50 0 0 0 0 0 1 17 7 2 0 0 7 10 0 0 0 0 0 0 0 0
0 0 0 0 0 0 0 0 0 0 0 0 0 0 0 0 0 0 0 0 0 0 0 0 0 0 0 0 0 0 0 0 0 0 178 300 756 998 963 880 754 638 649 620 568 502 444 399 370 315 165 8 0 103 289 263 195 72 18 97 171 167 161 149 132 125 116 0 0 43 34 9 4 2 8 8 4 0 0 0 0 0 0 0 0
0 0 0 0 0 0 0 0 0 0 0 0 0 0 0 0 0 0 0 0 0 0 0 0 0 0 0 0 0 0 0 0 0 0 0 0 0 327 811 743 597 534 532 535 518 495 500 482 486 454 407 406 405 394 401 317 231 173 132 0 8 188 189 161 135 116 2 0 0 50 8 8 6 3 2 7 2 0 0 0 0 0 0 0 0
0 0 0 0 0 0 0 0 0 0 0 0 0 0 0 0 0 0 0 0 0 0 0 0 0 0 0 0 0 0 0 0 0 0 0 0 4 48 82 238 607 658 573 521 579 580 574 554 523 552 535 499 436 424 432 422 339 208 0 0 0 39 157 179 152 121 24 0 32 35 3 3 1 0 6 6 2 0 0 0 0 0 0 0 0
2 0 0 0 0 0 0 0 0 0 0 0 0 0 0 0 0 0 0 0 0 0 0 0 0 0 0 0 0 0 0 0 0 0 0 0 0 0 0 2 220 513 559 666 709 700 678 619 641 679 670 646 632 576 540 444 332 259 9 0 0 24 222 190 144 114 63 6 0 0 0 0 2 2 3 2 0 0 0 0 0 0 0 0 0
1 0 0 0 0 0 0 0 0 0 0 0 0 0 0 0 0 0 0 0 0 0 0 0 0 0 0 0 0 0 0 0 0 0 0 0 0 0 0 0 0 0 12 455 732 789 791 840 760 671 658 626 603 596 546 493 403 343 296 283 82 82 80 51 55 52 85 84 53 0 1 2 2 1 0 0 0 0 0 0 0 0 0 0 0
0 0 0 0 0 0 0 0 0 0 0 0 0 0 0 0 0 0 0 0 0 0 0 0 0 0 0 0 0 0 0 0 0 0 0 0 0 0 0 0 0 0 2 42 47 83 470 606 610 584 523 526 565 573 512 432 380 278 221 263 329 54 0 0 0 7 0 0 0 8 2 2 3 1 0 0 0 0 0 0 0 0 0 0 0
3 4 0 0 0 0 0 0 0 0 0 0 0 0 0 0 0 0 0 0 0 0 0 0 0 0 0 0 0 0 0 0 0 0 0 0 0 0 0 0 0 0 0 0 37 66 206 381 499 506 523 552 544 520 488 423 328 26 0 164 199 227 174 0 6 3 1 2 2 5 7 7 6 1 0 0 0 0 0 0 0 0 0 0 0
1 3 13 0 0 0 0 0 0 0 0 0 0 0 0 0 0 0 0 0 0 0 0 0 0 0 0 0 0 0 0 0 0 0 0 0 0 0 0 0 0 0 0 0 0 0 116 331 490 550 511 513 535 534 509 452 358 263 63 59 65 0 0 0 0 0 4 4 4 3 5 8 5 1 0 0 0 0 0 0 0 0 0 0 0
0 4 1 0 0 0 0 0 0 0 0 0 3 0 0 0 0 0 0 0 0 0 0 0 0 0 0 0 0 0 0 0 0 0 0 0 0 0 0 0 0 0 0 0 0 0 0 0 103 293 354 412 471 446 425 387 317 237 192 135 0 0 1 0 0 0 1 2 5 6 9 2 0 0 0 0 0 0 0 0 0 0 0 0 0
0 0 0 0 0 0 0 2 8 6 8 11 15 8 4 0 0 0 0 0 0 0 0 0 0 0 0 0 0 0 0 0 0 0 0 0 0 0 0 0 0 0 0 0 0 0 0 0 0 0 109 213 259 242 234 241 228 226 220 105 45 0 0 0 0 1 3 2 2 0 2 3 5 1 0 0 0 0 0 0 0 0 0 0 0
0 0 0 2 9 5 4 4 1 1 1 4 8 10 8 0 0 0 0 0 0 0 0 0 0 0 0 0 0 0 0 0 0 0 0 0 0 0 0 0 0 0 0 0 0 0 0 0 0 0 0 0 0 0 0 3 163 174 177 182 191 139 57 16 14 18 16 15 16 13 6 0 0 0 0 1 1 0 0 0 0 0 0 0 0
0 0 0 0 0 3 8 12 7 2 1 0 0 0 0 0 0 0 0 0 0 0 0 0 0 0 0 0 0 0 0 0 0 0 0 0 0 0 0 0 0 0 0 0 0 0 0 0 0 0 0 0 0 24 0 112 126 123 120 145 153 123 51 14 13 19 21 11 7 2 2 1 0 3 4 2 0 0 3 6 2 0 0 0 0
0 0 0 4 2 1 0 0 0 0 0 0 0 0 0 0 0 0 0 0 0 0 0 0 0 0 0 0 0 0 0 0 0 0 0 0 0 0 0 0 0 0 0 0 0 0 0 0 0 0 0 0 0 0 0 0 0 20 65 71 64 32 7 2 10 8 9 2 1 2 6 6 8 8 2 4 5 9 12 6 1 0 0 0 0
0 0 2 6 9 9 8 7 6 4 4 3 1 0 0 0 0 0 0 0 0 0 0 0 0 0 0 0 0 0 0 0 0 0 0 0 0 0 0 0 0 0 0 0 0 0 0 0 0 0 0 0 0 36 3 0 0 0 3 7 9 13 24 22 12 6 6 4 4 6 10 14 10 8 4 4 5 5 2 0 0 0 0 0 0
0 0 6 10 12 8 5 5 5 5 6 7 7 5 5 2 0 0 0 0 0 0 0 0 0 0 0 0 0 0 0 0 0 0 0 0 0 0 0 0 0 0 0 0 0 0 0 0 0 0 0 28 45 31 7 0 0 0 9 14 18 20 22 10 9 13 3 2 2 9 14 9 6 6 6 3 0 0 0 0 0 0 0 0 0
0 0 0 0 4 8 7 6 3 2 2 5 8 8 6 3 1 0 0 0 0 0 0 0 0 0 0 0 0 0 0 0 0 0 0 0 0 0 0 0 0 0 0 0 0 0 0 0 0 42 52 45 21 10 3 0 0 2 8 8 11 5 7 14 7 4 3 5 7 6 4 4 4 4 0 0 0 0 0 0 0 0 0 0 0
0 0 0 0 0 0 0 0 0 0 0 1 2 2 2 1 1 0 0 0 0 0 0 0 0 0 0 0 0 0 0 0 0 0 0 0 0 0 19 92 41 53 0 0 0 0 0 0 13 49 36 33 17 7 1 0 0 0 4 6 5 8 9 9 6 3 7 6 6 5 6 3 3 5 4 1 0 0 0 0 0 0 0 0 0
0 0 0 0 0 0 0 0 0 0 0 0 0 1 0 0 0 0 0 0 1 2 0 0 0 0 0 0 0 0 0 0 0 0 0 0 0 0 56 87 74 63 0 0 0 0 0 35 4 0 28 2 0 0 0 0 0 5 8 13 17 17 14 10 10 10 7 3 2 6 11 16 12 7 2 0 0 0 0 0 0 0 0 0 0
0 0 0 0 0 0 0 0 0 0 0 0 0 0 0 0 0 0 0 0 0 0 2 1 1 1 0 0 0 0 0 0 0 0 38 37 0 0 0 30 83 4 3 0 0 0 0 0 0 0 0 0 0 0 0 6 7 19 23 20 20 20 15 10 11 4 3 4 4 1 2 3 1 2 0 0 0 0 0 0 0 0 0 0 0
0 0 0 0 0 0 0 0 0 0 0 0 0 0 0 0 0 0 0 1 5 12 13 11 9 0 0 0 0 0 0 0 0 56 70 81 99 99 95 60 30 97 99 88 0 0 0 0 0 0 0 0 0 1 1 13 21 14 14 16 13 10 6 2 4 4 4 6 7 7 6 2 0 0 0 0 0 0 0 0 0 0 0 0 0
0 0 0 0 0 0 0 0 0 0 0 0 0 0 0 0 0 0 0 0 0 2 6 3 2 6 0 0 0 0 0 0 0 4 6 3 0 76 81 84 79 72 34 0 0 0 0 0 0 0 0 0 2 7 10 8 9 10 11 14 11 7 6 6 9 10 10 6 4 1 0 0 0 0 0 0 0 0 0 0 0 0 1 2 4
0 0 0 0 0 0 0 0 0 0 0 0 0 0 0 0 0 0 0 0 0 0 0 0 0 0 12 1 0 0 0 0 13 13 1 0 0 73 94 91 68 8 0 0 0 0 0 0 0 5 9 4 1 1 4 4 10 8 9 10 9 7 6 7 10 8 4 0 0 0 0 0 0 0 0 0 0 0 0 0 0 0 0 1 4
Wind_Speed
23 22 19 19 18 17 21 24 24 28 28 27 27 25 23 23 25 25 23 23 23 nan nan nan nan nan nan nan nan nan nan nan nan nan nan nan nan nan 22 22 22 20 19 19 18 18 18 17 17 17 15 14 13 11 12 12 15 18 18 17 16 15 16 17 16 17 17 16 17 17 16 14 14 13 13 nan nan nan 17 21 27 33 39 44 43
27 24 22 22 21 20 21 23 24 29 27 28 26 25 22 23 24 24 24 23 21 18 nan 14 nan nan nan nan nan nan nan nan nan nan nan nan nan nan nan nan nan nan 22 21 19 20 21 19 20 18 16 15 14 13 13 14 16 17 17 16 13 14 16 18 17 18 15 15 17 17 16 15 14 15 nan nan nan 15 nan 17 21 25 33 40 41
28 26 25 25 24 22 22 23 24 27 27 27 25 25 24 24 23 24 23 23 19 16 15 13 11 12 nan nan nan nan nan nan nan nan nan nan nan nan nan nan nan nan nan nan nan 22 20 21 20 20 17 16 16 14 14 16 17 18 15 18 17 14 17 18 18 17 16 15 16 nan 15 16 16 17 18 nan nan nan 14 16 17 19 25 33 39
29 27 26 27 25 23 23 24 23 24 24 24 24 25 25 24 24 24 24 22 20 17 nan nan nan nan nan nan nan nan nan nan nan nan nan nan nan nan nan nan nan nan nan nan nan nan 23 22 21 20 20 18 18 17 16 16 18 20 19 19 19 19 17 17 17 16 16 19 17 16 16 18 18 17 17 17 17 16 17 19 19 17 17 22 33
29 26 24 24 24 23 23 22 22 23 22 23 24 25 24 26 25 26 26 24 22 21 nan nan nan nan nan nan nan nan nan nan nan nan nan 22 nan nan nan nan nan nan nan nan nan nan nan 21 22 21 21 20 19 19 18 19 17 19 20 20 20 20 19 18 17 17 15 17 17 18 18 17 15 16 19 18 18 19 19 19 19 17 14 16 25
32 29 25 22 22 22 21 21 22 22 22 23 25 26 27 26 26 27 27 26 25 nan nan nan nan nan nan nan nan nan nan nan nan nan nan nan nan nan nan nan nan nan nan nan nan nan nan nan 20 21 20 19 19 20 20 20 21 20 19 21 22 21 21 20 20 18 17 17 19 18 17 16 16 16 19 17 17 17 16 17 17 17 14 13 17
29 28 27 26 23 23 22 21 21 22 22 23 25 28 29 28 27 28 28 27 24 22 nan nan nan nan nan nan nan nan nan nan nan nan nan nan nan nan nan nan nan nan nan nan nan nan nan nan nan nan nan nan nan nan 23 20 21 21 21 22 nan 22 22 22 22 21 20 19 19 18 15 16 16 19 17 17 17 17 16 15 16 15 15 13 11
31 30 28 27 24 25 25 24 23 24 24 25 25 27 30 30 29 30 28 27 23 23 nan nan nan nan nan nan nan nan nan nan nan nan nan nan nan nan nan nan nan nan nan nan nan nan nan nan nan nan nan nan nan nan nan nan nan nan 21 23 nan nan nan nan 23 22 23 19 19 nan 15 16 19 21 20 19 nan 20 18 18 17 15 16 16 14
27 26 24 22 21 21 25 26 25 26 26 26 25 27 29 30 33 34 30 26 23 24 26 nan nan nan nan nan nan nan nan nan nan nan nan nan nan nan nan nan nan nan nan nan nan nan nan nan nan nan nan nan nan nan nan nan nan nan nan nan nan nan nan nan nan nan nan nan nan 18 20 19 22 22 nan nan nan nan nan 19 19 19 17 14 14
28 27 26 24 23 23 24 27 26 26 27 27 26 26 28 29 32 36 29 23 24 25 27 nan nan nan nan nan nan nan nan nan nan nan nan nan nan nan nan nan nan nan nan nan nan nan nan nan nan nan nan nan nan nan nan nan nan nan nan nan nan nan nan nan nan nan nan nan nan nan nan 23 23 23 nan nan nan nan nan nan nan nan nan 17 19
27 26 26 26 25 24 25 26 28 30 30 31 30 29 27 25 33 33 29 24 26 27 nan nan nan nan nan nan nan nan nan nan nan nan nan nan nan nan nan nan nan nan nan nan nan nan nan nan nan nan nan nan nan nan nan nan nan nan nan nan nan nan nan nan nan nan nan nan nan nan nan nan nan nan nan nan nan nan nan nan nan nan nan nan 24
33 30 26 25 25 24 24 26 30 31 31 32 31 32 31 26 26 35 30 31 30 28 nan nan nan nan nan nan nan nan nan nan nan nan nan nan nan nan nan nan nan nan nan nan nan nan nan nan nan nan nan nan nan nan nan nan nan nan nan nan nan nan nan nan nan nan nan nan nan nan nan nan nan nan nan nan nan nan nan nan nan nan nan nan nan
31 31 32 32 31 30 25 26 30 32 33 33 34 34 34 31 24 32 34 38 34 30 nan nan nan nan nan nan nan nan nan nan nan nan nan nan nan nan nan nan nan nan nan nan nan nan nan nan nan nan nan nan nan nan nan nan nan nan nan nan nan nan nan nan nan nan nan nan nan nan nan nan nan nan nan nan nan nan nan nan nan nan nan nan nan
28 29 32 33 33 30 28 30 32 32 33 34 35 36 35 32 28 24 33 37 33 29 27 nan nan nan 31 nan nan nan nan nan nan nan nan nan nan nan nan nan nan nan nan nan nan nan nan nan nan nan nan nan nan nan nan nan nan nan nan nan nan nan nan nan nan nan nan nan nan nan nan nan nan nan nan nan nan nan nan nan nan nan nan nan nan
29 31 30 30 30 31 32 31 32 33 34 33 34 35 35 34 30 28 30 34 30 28 28 nan nan nan nan nan nan nan nan nan nan nan nan nan nan nan nan nan nan nan nan nan nan nan nan nan nan nan nan nan nan nan nan nan nan nan nan nan nan nan nan nan nan nan nan nan nan nan nan nan nan nan nan nan nan nan nan nan nan nan nan nan nan
33 31 27 27 29 30 31 32 32 35 36 34 34 34 33 31 32 30 30 31 25 29 25 25 nan nan nan nan nan nan nan nan nan nan nan nan nan nan nan nan nan nan nan nan nan nan nan nan nan nan nan nan nan nan nan nan nan nan nan nan nan nan nan nan nan nan nan nan nan nan nan nan nan nan nan nan nan nan nan nan nan nan nan nan nan
31 29 28 27 28 29 30 31 36 36 37 35 34 33 32 30 33 31 27 22 24 32 29 26 26 nan 27 nan nan nan nan nan nan nan 19 nan nan nan nan nan nan nan nan nan nan nan nan nan nan nan nan nan nan nan nan nan nan nan nan nan nan nan nan nan nan nan nan nan nan nan nan nan nan nan nan nan nan nan nan nan nan nan nan nan nan
27 28 27 26 25 25 25 27 29 32 35 35 33 33 33 31 33 30 25 27 31 29 25 29 30 32 29 nan nan nan nan nan nan nan nan 21 21 nan 22 nan nan nan nan nan nan nan nan nan nan nan nan nan nan nan nan nan nan nan nan nan nan nan nan nan nan nan nan nan nan nan nan nan nan nan nan nan nan nan nan nan nan nan nan nan nan
24 25 24 24 25 26 27 27 28 27 26 29 34 34 36 34 31 33 35 33 32 29 31 30 32 33 30 24 22 nan nan nan nan nan nan 21 22 22 23 24 nan nan nan nan nan nan nan nan nan nan nan nan nan nan nan nan nan nan nan nan nan nan nan nan nan nan nan nan nan nan nan nan nan nan nan nan nan nan nan nan nan nan nan nan nan
23 25 24 25 26 27 28 28 27 27 28 26 25 26 29 34 41 40 40 40 39 34 33 30 25 28 28 28 26 nan 24 nan 25 nan nan 19 22 24 24 26 27 nan nan nan nan nan nan nan nan nan nan nan nan nan nan nan nan nan nan nan nan nan nan nan nan nan nan nan nan nan nan nan nan nan nan nan nan nan nan nan nan nan nan nan nan
23 25 26 28 28 27 28 28 28 28 27 27 28 29 31 29 36 42 44 43 42 37 37 33 30 25 27 30 29 28 27 28 28 25 21 20 21 24 25 25 28 29 29 nan nan nan nan nan nan nan nan nan nan nan nan nan nan nan nan nan nan nan nan nan nan nan nan nan nan nan nan nan nan nan nan nan nan nan nan nan nan nan nan nan nan
26 28 29 29 29 28 29 30 30 31 30 31 30 32 33 35 34 34 41 42 42 39 36 35 32 28 27 31 31 31 31 31 31 28 25 24 24 26 26 27 28 29 30 31 29 26 23 21 19 nan nan nan nan nan nan nan nan nan nan nan nan nan nan nan nan nan nan nan nan nan nan nan nan nan nan nan nan nan nan nan nan nan nan nan nan
30 31 31 30 31 31 32 32 32 32 32 32 33 34 33 34 36 37 38 37 40 42 37 35 33 33 34 34 36 37 37 35 35 32 31 28 28 28 29 31 29 29 29 28 29 29 28 26 23 20 20 nan nan nan nan nan nan nan nan nan nan nan nan nan nan nan nan nan nan nan nan nan nan nan nan nan nan nan nan nan nan nan nan nan nan
35 33 32 33 34 34 34 35 35 35 35 35 35 35 36 37 36 38 40 42 43 42 40 37 34 33 32 36 36 37 38 36 37 35 34 32 31 31 30 31 29 nan nan 29 30 30 30 29 26 22 21 21 20 nan nan nan nan nan nan nan nan nan nan nan nan nan nan nan nan nan nan nan nan nan nan nan nan nan nan nan nan nan nan nan nan
nan nan nan nan nan nan nan 36 38 39 38 38 38 38 38 39 39 40 39 38 39 41 44 44 42 35 32 36 31 28 32 35 36 36 36 34 35 37 35 33 33 31 30 30 31 32 32 29 27 25 24 24 24 23 22 21 21 21 nan nan nan nan nan nan nan nan nan nan nan nan nan nan nan nan nan nan nan nan nan nan nan nan nan nan nan
nan nan nan nan nan nan nan nan nan nan nan 40 40 40 40 40 40 40 41 40 39 39 41 43 42 39 36 35 33 33 32 33 35 34 33 33 35 38 38 36 35 36 nan 26 29 29 29 26 28 30 28 27 29 29 26 21 20 22 23 23 nan nan nan nan nan nan nan nan nan nan nan nan nan nan nan nan nan nan nan nan nan nan nan nan nan
nan nan nan nan nan nan nan nan nan nan nan nan 42 42 42 42 42 41 42 43 43 43 42 43 44 44 41 38 39 38 38 37 36 35 33 32 32 33 35 35 35 34 30 27 28 30 nan nan nan nan nan nan 33 30 29 27 24 24 26 26 25 24 24 nan nan nan nan nan nan nan nan nan nan nan nan nan nan nan nan nan nan nan nan nan nan
nan nan nan nan nan nan nan nan nan nan nan nan nan nan nan nan nan 42 42 43 44 45 45 46 47 47 46 44 43 43 43 44 42 41 39 38 37 37 37 37 35 30 27 nan 28 30 nan nan nan nan nan 36 35 30 28 29 30 nan nan nan 28 28 nan nan nan nan nan nan nan nan nan nan nan nan nan nan nan nan nan nan nan nan nan nan nan
nan nan nan nan nan nan nan nan nan nan nan nan nan nan nan nan nan nan nan nan nan nan 46 47 47 47 45 45 44 43 43 44 45 46 45 42 41 41 40 40 38 32 29 29 31 31 nan 33 35 nan nan nan nan 34 31 30 30 29 nan nan 28 31 31 nan nan nan nan nan nan nan nan nan nan nan nan nan nan nan nan nan nan nan nan nan nan
nan nan nan nan nan nan nan nan nan nan nan nan nan nan nan nan nan nan nan nan nan nan nan nan nan nan nan nan nan nan nan nan nan nan 46 46 45 44 43 42 39 36 34 35 36 36 36 34 34 35 37 nan nan 35 31 29 31 nan nan nan 28 28 31 33 34 35 35 nan nan nan nan nan nan nan nan nan nan nan nan nan nan nan nan nan nan
nan nan nan nan nan nan nan nan nan nan nan nan nan nan nan nan nan nan nan nan nan nan nan nan nan nan nan nan nan nan nan nan nan nan nan nan nan 46 46 43 41 40 38 38 40 40 39 39 36 34 35 37 38 36 30 27 26 30 33 nan nan 29 31 32 34 37 nan nan nan nan nan nan nan nan nan nan nan nan nan nan nan nan nan nan nan
nan nan nan nan nan nan nan nan nan nan nan nan nan nan nan nan nan nan nan nan nan nan nan nan nan nan nan nan nan nan nan nan nan nan nan nan nan nan nan 45 44 43 41 42 43 42 42 43 41 37 35 36 38 37 33 31 30 31 nan nan nan nan 41 39 38 40 nan nan nan nan nan nan nan nan nan nan nan nan nan nan nan nan nan nan nan
nan nan nan nan nan nan nan nan nan nan nan nan nan nan nan nan nan nan nan nan nan nan nan nan nan nan nan nan nan nan nan nan nan nan nan nan nan nan nan nan 49 45 44 45 43 44 44 45 45 43 41 41 41 39 38 35 34 34 nan nan nan nan 50 47 45 44 nan nan nan nan nan nan nan nan nan nan nan nan nan nan nan nan nan nan nan
nan nan nan nan nan nan nan nan nan nan nan nan nan nan nan nan nan nan nan nan nan nan nan nan nan nan nan nan nan nan nan nan nan nan nan nan nan nan nan nan nan nan nan 48 45 43 44 46 47 47 45 47 47 44 43 40 39 39 41 46 nan nan nan nan nan nan nan nan nan nan nan nan nan nan nan nan nan nan nan nan nan nan nan nan nan
nan nan nan nan nan nan nan nan nan nan nan nan nan nan nan nan nan nan nan nan nan nan nan nan nan nan nan nan nan nan nan nan nan nan nan nan nan nan nan nan nan nan nan nan nan nan 44 46 49 50 50 50 51 55 52 54 54 54 55 57 58 nan nan nan nan nan nan nan nan nan nan nan nan nan nan nan nan nan nan nan nan nan nan nan nan
nan nan nan nan nan nan nan nan nan nan nan nan nan nan nan nan nan nan nan nan nan nan nan nan nan nan nan nan nan nan nan nan nan nan nan nan nan nan nan nan nan nan nan nan nan nan 47 44 47 52 54 53 53 58 60 62 63 nan nan 60 60 61 62 nan nan nan nan nan nan nan nan nan nan nan nan nan nan nan nan nan nan nan nan nan nan
nan nan nan nan nan nan nan nan nan nan nan nan nan nan nan nan nan nan nan nan nan nan nan nan nan nan nan nan nan nan nan nan nan nan nan nan nan nan nan nan nan nan nan nan nan nan 49 49 51 51 51 51 53 56 59 60 62 64 nan nan nan nan nan nan nan nan nan nan nan nan nan nan nan nan nan nan nan nan nan nan nan nan nan nan nan
nan nan nan nan nan nan nan nan nan nan nan nan nan nan nan nan nan nan nan nan nan nan nan nan nan nan nan nan nan nan nan nan nan nan nan nan nan nan nan nan nan nan nan nan nan nan nan nan 53 51 51 52 52 54 57 57 59 59 58 57 nan nan nan nan nan nan nan nan nan nan nan nan nan nan nan nan nan nan nan nan nan nan nan nan nan
nan nan nan nan nan nan nan nan nan nan nan nan nan nan nan nan nan nan nan nan nan nan nan nan nan nan nan nan nan nan nan nan nan nan nan nan nan nan nan nan nan nan nan nan nan nan nan nan nan nan 55 56 54 54 57 59 59 58 56 53 nan nan nan nan nan nan nan nan nan nan nan nan nan nan nan nan nan nan nan nan nan nan nan nan nan
nan nan nan nan nan nan nan nan nan nan nan nan nan nan nan nan nan nan nan nan nan nan nan nan nan nan nan nan nan nan nan nan nan nan nan nan nan nan nan nan nan nan nan nan nan nan nan nan nan nan nan nan nan nan nan nan 59 59 57 54 53 54 nan nan nan nan nan nan nan nan nan nan nan nan nan nan nan nan nan nan nan nan nan nan nan
nan nan nan nan nan nan nan nan nan nan nan nan nan nan nan nan nan nan nan nan nan nan nan nan nan nan nan nan nan nan nan nan nan nan nan nan nan nan nan nan nan nan nan nan nan nan nan nan nan nan nan nan nan nan nan 62 62 61 61 59 54 54 nan nan nan nan nan nan nan nan nan nan nan nan nan nan nan nan nan nan nan nan nan nan nan
nan nan nan nan nan nan nan nan nan nan nan nan nan nan nan nan nan nan nan nan nan nan nan nan nan nan nan nan nan nan nan nan nan nan nan nan nan nan nan nan nan nan nan nan nan nan nan nan nan nan nan nan nan nan nan nan nan nan nan nan nan nan nan nan nan nan nan nan nan nan nan nan nan nan nan nan nan nan nan nan nan nan nan nan nan
nan nan nan nan nan nan nan nan nan nan nan nan nan nan nan nan nan nan nan nan nan nan nan nan nan nan nan nan nan nan nan nan nan nan nan nan nan nan nan nan nan nan nan nan nan nan nan nan nan nan nan nan nan nan nan nan nan nan nan nan nan nan nan nan nan nan nan nan nan nan nan nan nan nan nan nan nan nan nan nan nan nan nan nan nan
nan nan nan nan nan nan nan nan nan nan nan nan nan nan nan nan nan nan nan nan nan nan nan nan nan nan nan nan nan nan nan nan nan nan nan nan nan nan nan nan nan nan nan nan nan nan nan nan nan nan nan nan nan nan nan nan nan nan nan nan nan nan nan nan nan nan nan nan nan nan nan nan nan nan nan nan nan nan nan nan nan nan nan nan nan
nan nan nan nan nan nan nan nan nan nan nan nan nan nan nan nan nan nan nan nan nan nan nan nan nan nan nan nan nan nan nan nan nan nan nan nan nan nan nan nan nan nan nan nan nan nan nan nan nan nan nan nan nan nan nan nan nan nan nan nan nan nan nan nan nan nan nan nan nan nan nan nan nan nan nan nan nan nan nan nan nan nan nan nan nan
nan nan nan nan nan nan nan nan nan nan nan nan nan nan nan nan nan nan nan nan nan nan nan nan nan nan nan nan nan nan nan nan nan nan nan nan nan nan nan nan nan nan nan nan nan nan nan nan nan nan nan nan nan nan nan nan nan nan nan nan nan nan nan nan nan nan nan nan nan nan nan nan nan nan nan nan nan nan nan nan nan nan nan nan nan
nan nan nan nan nan nan nan nan nan nan nan nan nan nan nan nan nan nan nan nan nan nan nan nan nan nan nan nan nan nan nan nan nan nan nan nan nan nan nan nan nan nan nan nan nan nan nan nan nan nan nan nan nan nan nan nan nan nan nan nan nan nan nan nan nan nan nan nan nan nan nan nan nan nan nan nan nan nan nan nan nan nan nan nan nan
nan nan nan nan nan nan nan nan nan nan nan nan nan nan nan nan nan nan nan nan nan nan nan nan nan nan nan nan nan nan nan nan nan nan nan nan nan nan nan nan nan nan nan nan nan nan nan nan nan nan nan nan nan nan nan nan nan nan nan nan nan nan nan nan nan nan nan nan nan nan nan nan nan nan nan nan nan nan nan nan nan nan nan nan nan
nan nan nan nan nan nan nan nan nan nan nan nan nan nan nan nan nan nan nan nan nan nan nan nan nan nan nan nan nan nan nan nan nan nan nan nan nan nan nan nan nan nan nan nan nan nan nan nan nan nan nan nan nan nan nan nan nan nan nan nan nan nan nan nan nan nan nan nan nan nan nan nan nan nan nan nan nan nan nan nan nan nan nan nan nan
nan nan nan nan nan nan nan nan nan nan nan nan nan nan nan nan nan nan nan nan nan nan nan nan nan nan nan nan nan nan nan nan nan nan nan nan nan nan nan nan nan nan nan nan nan nan nan nan nan nan nan nan nan nan nan nan nan nan nan nan nan nan nan nan nan nan nan nan nan nan nan nan nan nan nan nan nan nan nan nan nan nan nan nan nan
nan nan nan nan nan nan nan nan nan nan nan nan nan nan nan nan nan nan nan nan nan nan nan nan nan nan nan nan nan nan nan nan nan nan nan nan nan nan nan nan nan nan nan nan nan nan nan nan nan nan nan nan nan nan nan nan nan nan nan nan nan nan nan nan nan nan nan nan nan nan nan nan nan nan nan nan nan nan nan nan nan nan nan nan nan
Wind_Direction
297 299 299 303 304 301 286 290 290 292 292 293 292 292 291 290 290 292 293 292 291 nan nan nan nan nan nan nan nan nan nan nan nan nan nan nan nan nan 289 289 290 294 288 286 287 284 278 275 273 277 285 287 288 292 289 278 279 278 274 266 272 273 275 276 270 273 277 271 264 262 266 267 258 249 252 nan nan nan 257 253 248 237 229 230 231
293 292 294 300 294 292 284 290 291 295 296 295 294 294 291 287 289 292 291 292 293 300 nan 309 nan nan nan nan nan nan nan nan nan nan nan nan nan nan nan nan nan nan 294 294 288 282 281 284 284 288 288 290 293 293 285 279 277 274 273 271 271 278 279 278 278 276 279 288 278 266 267 268 264 262 nan nan nan 265 nan 263 257 247 239 230 228
290 292 288 295 293 289 289 291 291 295 295 293 291 288 287 286 288 289 292 291 293 291 293 299 291 291 nan nan nan nan nan nan nan nan nan nan nan nan nan nan nan nan nan nan nan 290 292 291 292 291 295 296 295 294 288 287 288 289 297 294 292 288 280 280 286 282 283 279 274 nan 275 274 263 257 263 nan nan nan 267 269 268 265 252 236 226
298 300 297 300 299 294 292 295 291 290 292 288 290 288 285 284 286 289 291 288 285 286 nan nan nan nan nan nan nan nan nan nan nan nan nan nan nan nan nan nan nan nan nan nan nan nan 286 299 298 298 298 297 294 289 288 283 283 293 296 290 286 283 282 282 286 289 277 279 270 274 275 273 266 259 261 263 270 277 276 272 274 274 265 250 234
305 303 299 296 303 301 298 296 290 293 293 290 292 288 282 284 288 290 288 285 284 288 nan nan nan nan nan nan nan nan nan nan nan nan nan 288 nan nan nan nan nan nan nan nan nan nan nan 284 288 291 290 290 288 286 279 281 279 274 277 280 281 282 286 278 276 281 278 269 271 269 264 263 264 261 262 263 264 269 272 273 269 265 267 265 245
306 309 311 300 299 292 291 290 292 292 293 291 294 291 286 286 288 287 282 280 286 nan nan nan nan nan nan nan nan nan nan nan nan nan nan nan nan nan nan nan nan nan nan nan nan nan nan nan 275 281 286 280 277 276 277 273 275 275 277 277 278 278 280 277 275 273 273 264 265 268 267 266 269 263 266 267 260 265 271 271 264 260 257 252 248
296 300 301 293 297 298 295 291 291 293 294 290 294 294 293 291 289 287 282 282 288 294 nan nan nan nan nan nan nan nan nan nan nan nan nan nan nan nan nan nan nan nan nan nan nan nan nan nan nan nan nan nan nan nan 267 271 273 272 273 275 nan 281 278 275 279 275 269 264 265 264 258 261 266 269 270 267 263 263 273 276 270 269 263 260 263
302 301 302 303 304 304 303 300 297 299 295 290 292 295 298 294 284 278 276 281 289 297 nan nan nan nan nan nan nan nan nan nan nan nan nan nan nan nan nan nan nan nan nan nan nan nan nan nan nan nan nan nan nan nan nan nan nan nan 268 268 nan nan nan nan 277 279 275 269 271 nan 263 259 260 259 260 267 nan 266 264 262 266 270 264 266 278
286 296 297 298 302 306 302 302 300 297 293 296 296 295 296 293 282 271 274 278 290 301 302 nan nan nan nan nan nan nan nan nan nan nan nan nan nan nan nan nan nan nan nan nan nan nan nan nan nan nan nan nan nan nan nan nan nan nan nan nan nan nan nan nan nan nan nan nan nan 267 267 264 258 256 nan nan nan nan nan 260 260 261 257 259 266
300 304 299 303 312 313 308 300 293 291 286 288 286 289 286 284 280 273 270 284 299 303 305 nan nan nan nan nan nan nan nan nan nan nan nan nan nan nan nan nan nan nan nan nan nan nan nan nan nan nan nan nan nan nan nan nan nan nan nan nan nan nan nan nan nan nan nan nan nan nan nan 263 259 257 nan nan nan nan nan nan nan nan nan 258 276
295 296 299 305 310 307 296 298 293 284 286 288 286 281 276 286 289 263 264 291 312 310 nan nan nan nan nan nan nan nan nan nan nan nan nan nan nan nan nan nan nan nan nan nan nan nan nan nan nan nan nan nan nan nan nan nan nan nan nan nan nan nan nan nan nan nan nan nan nan nan nan nan nan nan nan nan nan nan nan nan nan nan nan nan 272
278 279 287 298 289 286 291 291 287 288 287 287 286 286 285 279 287 277 259 284 307 312 nan nan nan nan nan nan nan nan nan nan nan nan nan nan nan nan nan nan nan nan nan nan nan nan nan nan nan nan nan nan nan nan nan nan nan nan nan nan nan nan nan nan nan nan nan nan nan nan nan nan nan nan nan nan nan nan nan nan nan nan nan nan nan
278 286 285 280 286 292 291 294 287 290 292 295 294 290 286 282 284 292 278 275 293 307 nan nan nan nan nan nan nan nan nan nan nan nan nan nan nan nan nan nan nan nan nan nan nan nan nan nan nan nan nan nan nan nan nan nan nan nan nan nan nan nan nan nan nan nan nan nan nan nan nan nan nan nan nan nan nan nan nan nan nan nan nan nan nan
273 273 273 276 279 284 297 296 295 293 295 295 292 288 287 285 285 282 271 267 280 299 297 nan nan nan 296 nan nan nan nan nan nan nan nan nan nan nan nan nan nan nan nan nan nan nan nan nan nan nan nan nan nan nan nan nan nan nan nan nan nan nan nan nan nan nan nan nan nan nan nan nan nan nan nan nan nan nan nan nan nan nan nan nan nan
263 261 265 271 273 277 281 294 297 297 296 293 293 291 292 295 289 293 275 247 263 297 293 nan nan nan nan nan nan nan nan nan nan nan nan nan nan nan nan nan nan nan nan nan nan nan nan nan nan nan nan nan nan nan nan nan nan nan nan nan nan nan nan nan nan nan nan nan nan nan nan nan nan nan nan nan nan nan nan nan nan nan nan nan nan
264 266 267 265 269 269 272 277 289 292 291 289 291 288 289 294 291 292 279 245 258 290 280 276 nan nan nan nan nan nan nan nan nan nan nan nan nan nan nan nan nan nan nan nan nan nan nan nan nan nan nan nan nan nan nan nan nan nan nan nan nan nan nan nan nan nan nan nan nan nan nan nan nan nan nan nan nan nan nan nan nan nan nan nan nan
268 276 278 276 270 269 267 271 274 283 289 290 291 292 293 294 291 296 299 280 256 258 254 256 269 nan 267 nan nan nan nan nan nan nan 280 nan nan nan nan nan nan nan nan nan nan nan nan nan nan nan nan nan nan nan nan nan nan nan nan nan nan nan nan nan nan nan nan nan nan nan nan nan nan nan nan nan nan nan nan nan nan nan nan nan nan
270 270 269 266 263 263 266 268 271 281 290 294 301 299 297 296 296 301 296 270 274 273 269 274 275 269 257 nan nan nan nan nan nan nan nan 281 284 nan 284 nan nan nan nan nan nan nan nan nan nan nan nan nan nan nan nan nan nan nan nan nan nan nan nan nan nan nan nan nan nan nan nan nan nan nan nan nan nan nan nan nan nan nan nan nan nan
266 263 265 265 267 271 271 270 267 263 272 283 292 297 300 300 307 307 307 292 291 291 286 285 284 282 271 262 270 nan nan nan nan nan nan 280 288 288 287 293 nan nan nan nan nan nan nan nan nan nan nan nan nan nan nan nan nan nan nan nan nan nan nan nan nan nan nan nan nan nan nan nan nan nan nan nan nan nan nan nan nan nan nan nan nan
270 271 272 273 273 273 271 270 267 266 265 263 267 277 283 288 297 298 297 293 291 291 290 285 282 290 280 271 272 nan 277 nan 273 nan nan 275 285 286 284 286 291 nan nan nan nan nan nan nan nan nan nan nan nan nan nan nan nan nan nan nan nan nan nan nan nan nan nan nan nan nan nan nan nan nan nan nan nan nan nan nan nan nan nan nan nan
278 280 281 280 278 276 273 270 267 266 264 262 265 265 261 264 284 289 290 291 290 289 286 290 283 279 281 272 269 274 278 275 274 277 269 267 272 276 281 284 283 286 286 nan nan nan nan nan nan nan nan nan nan nan nan nan nan nan nan nan nan nan nan nan nan nan nan nan nan nan nan nan nan nan nan nan nan nan nan nan nan nan nan nan nan
284 287 285 283 280 278 276 271 268 266 262 261 263 263 261 261 265 271 282 288 288 283 278 281 277 272 273 266 258 263 271 272 270 268 267 266 265 266 269 268 271 277 287 291 291 286 285 285 285 nan nan nan nan nan nan nan nan nan nan nan nan nan nan nan nan nan nan nan nan nan nan nan nan nan nan nan nan nan nan nan nan nan nan nan nan
284 288 286 282 280 279 278 275 273 271 271 269 267 267 267 264 263 266 265 265 272 280 281 280 283 282 276 269 265 266 267 265 267 266 265 261 257 257 259 262 263 263 269 280 286 287 286 285 282 280 278 nan nan nan nan nan nan nan nan nan nan nan nan nan nan nan nan nan nan nan nan nan nan nan nan nan nan nan nan nan nan nan nan nan nan
277 279 278 278 278 277 275 276 275 273 272 272 272 272 271 269 267 265 263 264 264 266 267 271 273 267 267 266 266 270 268 270 271 271 272 273 270 265 263 264 265 nan nan 265 268 268 269 275 284 282 281 281 281 nan nan nan nan nan nan nan nan nan nan nan nan nan nan nan nan nan nan nan nan nan nan nan nan nan nan nan nan nan nan nan nan
nan nan nan nan nan nan nan 276 276 275 275 272 271 272 272 272 272 269 268 267 266 266 268 272 273 274 269 269 271 269 276 281 283 281 279 276 274 271 269 268 266 261 255 257 260 265 266 267 276 279 279 278 279 282 283 282 281 282 nan nan nan nan nan nan nan nan nan nan nan nan nan nan nan nan nan nan nan nan nan nan nan nan nan nan nan
nan nan nan nan nan nan nan nan nan nan nan 272 271 270 270 271 270 272 272 271 269 267 268 270 273 274 273 271 269 268 264 265 266 269 277 279 275 273 271 272 273 271 nan 263 265 266 270 271 268 269 271 271 265 263 262 267 278 283 281 282 nan nan nan nan nan nan nan nan nan nan nan nan nan nan nan nan nan nan nan nan nan nan nan nan nan
nan nan nan nan nan nan nan nan nan nan nan nan 271 271 270 269 268 268 269 270 270 270 270 270 272 275 275 272 272 273 274 275 275 277 278 278 277 275 273 279 286 282 271 264 260 261 nan nan nan nan nan nan 267 267 268 267 265 270 274 274 276 277 275 nan nan nan nan nan nan nan nan nan nan nan nan nan nan nan nan nan nan nan nan nan nan
nan nan nan nan nan nan nan nan nan nan nan nan nan nan nan nan nan 267 266 267 268 269 270 271 272 273 275 277 277 277 275 275 276 276 276 276 275 273 268 271 281 281 267 nan 265 265 nan nan nan nan nan 270 269 265 262 264 261 nan nan nan 274 275 nan nan nan nan nan nan nan nan nan nan nan nan nan nan nan nan nan nan nan nan nan nan nan
nan nan nan nan nan nan nan nan nan nan nan nan nan nan nan nan nan nan nan nan nan nan 266 267 268 270 274 276 276 276 276 277 278 278 279 278 277 278 277 276 279 280 275 272 270 268 nan 269 275 nan nan nan nan 266 264 265 264 265 nan nan 276 277 275 nan nan nan nan nan nan nan nan nan nan nan nan nan nan nan nan nan nan nan nan nan nan
nan nan nan nan nan nan nan nan nan nan nan nan nan nan nan nan nan nan nan nan nan nan nan nan nan nan nan nan nan nan nan nan nan nan 278 279 281 282 282 281 281 280 277 275 273 271 270 272 274 274 271 nan nan 269 266 272 270 nan nan nan 266 271 273 273 275 275 274 nan nan nan nan nan nan nan nan nan nan nan nan nan nan nan nan nan nan
nan nan nan nan nan nan nan nan nan nan nan nan nan nan nan nan nan nan nan nan nan nan nan nan nan nan nan nan nan nan nan nan nan nan nan nan nan 282 281 281 279 277 275 274 273 272 270 269 272 271 269 271 274 276 281 276 276 277 267 nan nan 269 272 273 275 279 nan nan nan nan nan nan nan nan nan nan nan nan nan nan nan nan nan nan nan
nan nan nan nan nan nan nan nan nan nan nan nan nan nan nan nan nan nan nan nan nan nan nan nan nan nan nan nan nan nan nan nan nan nan nan nan nan nan nan 276 275 273 272 271 271 272 271 269 269 270 269 269 272 276 279 273 270 270 nan nan nan nan 275 277 278 280 nan nan nan nan nan nan nan nan nan nan nan nan nan nan nan nan nan nan nan
nan nan nan nan nan nan nan nan nan nan nan nan nan nan nan nan nan nan nan nan nan nan nan nan nan nan nan nan nan nan nan nan nan nan nan nan nan nan nan nan 274 276 274 273 275 274 273 273 273 271 267 266 266 270 272 272 270 270 nan nan nan nan 279 280 281 279 nan nan nan nan nan nan nan nan nan nan nan nan nan nan nan nan nan nan nan
nan nan nan nan nan nan nan nan nan nan nan nan nan nan nan nan nan nan nan nan nan nan nan nan nan nan nan nan nan nan nan nan nan nan nan nan nan nan nan nan nan nan nan 276 276 275 273 272 273 272 269 266 266 266 268 271 273 273 275 279 nan nan nan nan nan nan nan nan nan nan nan nan nan nan nan nan nan nan nan nan nan nan nan nan nan
nan nan nan nan nan nan nan nan nan nan nan nan nan nan nan nan nan nan nan nan nan nan nan nan nan nan nan nan nan nan nan nan nan nan nan nan nan nan nan nan nan nan nan nan nan nan 270 271 272 272 270 268 264 265 269 270 272 275 276 273 270 nan nan nan nan nan nan nan nan nan nan nan nan nan nan nan nan nan nan nan nan nan nan nan nan
nan nan nan nan nan nan nan nan nan nan nan nan nan nan nan nan nan nan nan nan nan nan nan nan nan nan nan nan nan nan nan nan nan nan nan nan nan nan nan nan nan nan nan nan nan nan 271 270 269 270 270 270 266 266 270 272 274 nan nan 271 271 271 271 nan nan nan nan nan nan nan nan nan nan nan nan nan nan nan nan nan nan nan nan nan nan
nan nan nan nan nan nan nan nan nan nan nan nan nan nan nan nan nan nan nan nan nan nan nan nan nan nan nan nan nan nan nan nan nan nan nan nan nan nan nan nan nan nan nan nan nan nan 273 274 272 272 273 270 267 267 272 275 275 275 nan nan nan nan nan nan nan nan nan nan nan nan nan nan nan nan nan nan nan nan nan nan nan nan nan nan nan
nan nan nan nan nan nan nan nan nan nan nan nan nan nan nan nan nan nan nan nan nan nan nan nan nan nan nan nan nan nan nan nan nan nan nan nan nan nan nan nan nan nan nan nan nan nan nan nan 275 276 275 274 271 270 273 275 274 272 273 274 nan nan nan nan nan nan nan nan nan nan nan nan nan nan nan nan nan nan nan nan nan nan nan nan nan
nan nan nan nan nan nan nan nan nan nan nan nan nan nan nan nan nan nan nan nan nan nan nan nan nan nan nan nan nan nan nan nan nan nan nan nan nan nan nan nan nan nan nan nan nan nan nan nan nan nan 277 276 274 273 274 274 274 274 274 274 nan nan nan nan nan nan nan nan nan nan nan nan nan nan nan nan nan nan nan nan nan nan nan nan nan
nan nan nan nan nan nan nan nan nan nan nan nan nan nan nan nan nan nan nan nan nan nan nan nan nan nan nan nan nan nan nan nan nan nan nan nan nan nan nan nan nan nan nan nan nan nan nan nan nan nan nan nan nan nan nan nan 273 273 273 273 273 273 nan nan nan nan nan nan nan nan nan nan nan nan nan nan nan nan nan nan nan nan nan nan nan
nan nan nan nan nan nan nan nan nan nan nan nan nan nan nan nan nan nan nan nan nan nan nan nan nan nan nan nan nan nan nan nan nan nan nan nan nan nan nan nan nan nan nan nan nan nan nan nan nan nan nan nan nan nan nan 274 273 273 273 274 273 274 nan nan nan nan nan nan nan nan nan nan nan nan nan nan nan nan nan nan nan nan nan nan nan
nan nan nan nan nan nan nan nan nan nan nan nan nan nan nan nan nan nan nan nan nan nan nan nan nan nan nan nan nan nan nan nan nan nan nan nan nan nan nan nan nan nan nan nan nan nan nan nan nan nan nan nan nan nan nan nan nan nan nan nan nan nan nan nan nan nan nan nan nan nan nan nan nan nan nan nan nan nan nan nan nan nan nan nan nan
nan nan nan nan nan nan nan nan nan nan nan nan nan nan nan nan nan nan nan nan nan nan nan nan nan nan nan nan nan nan nan nan nan nan nan nan nan nan nan nan nan nan nan nan nan nan nan nan nan nan nan nan nan nan nan nan nan nan nan nan nan nan nan nan nan nan nan nan nan nan nan nan nan nan nan nan nan nan nan nan nan nan nan nan nan
nan nan nan nan nan nan nan nan nan nan nan nan nan nan nan nan nan nan nan nan nan nan nan nan nan nan nan nan nan nan nan nan nan nan nan nan nan nan nan nan nan nan nan nan nan nan nan nan nan nan nan nan nan nan nan nan nan nan nan nan nan nan nan nan nan nan nan nan nan nan nan nan nan nan nan nan nan nan nan nan nan nan nan nan nan
nan nan nan nan nan nan nan nan nan nan nan nan nan nan nan nan nan nan nan nan nan nan nan nan nan nan nan nan nan nan nan nan nan nan nan nan nan nan nan nan nan nan nan nan nan nan nan nan nan nan nan nan nan nan nan nan nan nan nan nan nan nan nan nan nan nan nan nan nan nan nan nan nan nan nan nan nan nan nan nan nan nan nan nan nan
nan nan nan nan nan nan nan nan nan nan nan nan nan nan nan nan nan nan nan nan nan nan nan nan nan nan nan nan nan nan nan nan nan nan nan nan nan nan nan nan nan nan nan nan nan nan nan nan nan nan nan nan nan nan nan nan nan nan nan nan nan nan nan nan nan nan nan nan nan nan nan nan nan nan nan nan nan nan nan nan nan nan nan nan nan
nan nan nan nan nan nan nan nan nan nan nan nan nan nan nan nan nan nan nan nan nan nan nan nan nan nan nan nan nan nan nan nan nan nan nan nan nan nan nan nan nan nan nan nan nan nan nan nan nan nan nan nan nan nan nan nan nan nan nan nan nan nan nan nan nan nan nan nan nan nan nan nan nan nan nan nan nan nan nan nan nan nan nan nan nan
nan nan nan nan nan nan nan nan nan nan nan nan nan nan nan nan nan nan nan nan nan nan nan nan nan nan nan nan nan nan nan nan nan nan nan nan nan nan nan nan nan nan nan nan nan nan nan nan nan nan nan nan nan nan nan nan nan nan nan nan nan nan nan nan nan nan nan nan nan nan nan nan nan nan nan nan nan nan nan nan nan nan nan nan nan
nan nan nan nan nan nan nan nan nan nan nan nan nan nan nan nan nan nan nan nan nan nan nan nan nan nan nan nan nan nan nan nan nan nan nan nan nan nan nan nan nan nan nan nan nan nan nan nan nan nan nan nan nan nan nan nan nan nan nan nan nan nan nan nan nan nan nan nan nan nan nan nan nan nan nan nan nan nan nan nan nan nan nan nan nan
nan nan nan nan nan nan nan nan nan nan nan nan nan nan nan nan nan nan nan nan nan nan nan nan nan nan nan nan nan nan nan nan nan nan nan nan nan nan nan nan nan nan nan nan nan nan nan nan nan nan nan nan nan nan nan nan nan nan nan nan nan nan nan nan nan nan nan nan nan nan nan nan nan nan nan nan nan nan nan nan nan nan nan nan nan
nan nan nan nan nan nan nan nan nan nan nan nan nan nan nan nan nan nan nan nan nan nan nan nan nan nan nan nan nan nan nan nan nan nan nan nan nan nan nan nan nan nan nan nan nan nan nan nan nan nan nan nan nan nan nan nan nan nan nan nan nan nan nan nan nan nan nan nan nan nan nan nan nan nan nan nan nan nan nan nan nan nan nan nan nan